Tracking 30058 objects as of 9-Dec-2024
HD Live streaming from Space Station
objects crossing your sky now

COSMOS 1761

Track COSMOS 1761 now!
COSMOS 1761 is classified as:


NORAD ID: 16849
Int'l Code: 1986-050A
Perigee: 4,817.8 km
Apogee: 35,522.0 km
Inclination: 70.0 °
Period: 717.2 minutes
Semi major axis: 26540 km
RCS: 12.1379 m2 (large)
Launch date: July 5, 1986
Source: Commonwealth of Independent States (former USSR) (CIS)
Launch site: PLESETSK MISSILE AND SPACE COMPLEX (PKMTR)
Your satellite tracking list
Your tracking list is empty




NASA's NSSDC Master Catalog

Two Line Element Set (TLE):
1 16849U 86050A   24339.36462619  .00000511  00000-0  00000-0 0  9992
2 16849  69.9832  73.3369 5784324  19.2944 352.8995  2.00784208281351
Source of the keplerian elements: AFSPC